Regional Weather Roundup
Issued by NWS

Home | Current Version | Previous Version | Text Only | Print | Product List | Glossary Off
Versions: 1 2 3 4 5 6 7 8 9 10 11 12 13 14 15 16 17 18 19 20 21 22 23 24 25 26 27 28 29 30 31 32 33 34 35 36 37 38 39 40 41 42 43 44 45 46 47 48 49 50

000
ASUS43 KLOT 252100
RWRIL

ILLINOIS REGIONAL WEATHER ROUNDUP
NATIONAL WEATHER SERVICE CHICAGO/ROMEOVILLE IL
300 PM CST SUN JAN 25 2015

NOTE: "FAIR" INDICATES FEW OR NO CLOUDS BELOW 12,000 FEET WITH NO
SIGNIFICANT WEATHER AND/OR OBSTRUCTIONS TO VISIBILITY.

* THESE STATIONS ARE NOT UNDER NWS QUALITY CONTROL. THEY ALSO MAY NOT
  REPORT WEATHER SUCH AS PRECIPITATION OR FOG.

ILZ001-002-007-009-015-016-024-252200-
NORTHWEST ILLINOIS

CITY           SKY/WX    TMP DP  RH WIND       PRES   REMARKS
MOLINE         CLOUDY    30  22  72 NE8       29.87R WCI  22
STERLING*      CLOUDY    28  19  69 NE20G28   29.88R WCI  15
$$

ILZ003-004-008-010-011-017-018-252200-
NORTH CENTRAL ILLINOIS

CITY           SKY/WX    TMP DP  RH WIND       PRES   REMARKS
ROCKFORD       PTSUNNY   27  14  58 NE18G30   29.91R WCI  14
$$

ILZ005-006-012>014-019>023-252200-
NORTHEAST ILLINOIS

CITY           SKY/WX    TMP DP  RH WIND       PRES   REMARKS
CHICAGO-OHARE  FLURRIES  27  21  78 N21G30    29.86R WCI  13
CHICAGO-MIDWAY LGT SNOW  30  26  85 NE22      29.85R VSB 1   WCI  17
AURORA         CLOUDY    30  19  63 NE22G31   29.85R WCI  17
WAUKEGAN       CLOUDY    26  17  68 N18G25    29.90R WCI  13
DUPAGE AIRPORT CLOUDY    28  19  69 NE23G32   29.85R WCI  14
WHEELING       CLOUDY    27  18  69 NE22G30   29.90R WCI  13
NORTHERLY ISL    N/A     27  26  96 N22         N/A  WCI  13
$$

LMZ740>746-252200-
SOUTHERN LAKE MICHIGAN

STATION/POSITION SKY/WX   TEMP    WIND        PRES    VSBY  WAVE
                          AIR SEA DIR/SP/G                  HT/PER
                          (F)     (DEG/KT/KT) (MB)    (MI)  (FT/S)
WAUKEGAN HARBOR            27      30/ 25/ 33   N/A
HARRISON CRIB              28      30/ 26/ 30   N/A
BURNHAM HARBOR             27      20/ 23       N/A
CALUMET HARBOR             28      20/ 18/ 27   N/A
MICHIGAN CITY              27      20/ 21/ 23   N/A
$$

ILZ025>027-034>036-040-047-049-050-058-095>099-252200-
WEST-CENTRAL ILLINOIS

CITY           SKY/WX    TMP DP  RH WIND       PRES   REMARKS
QUINCY         MIX PCPN  32  29  88 N24       29.77R FOG     WCI  19
$$

ILZ028>032-037-038-041>044-048-051>054-059>061-252200-
CENTRAL ILLINOIS

CITY           SKY/WX    TMP DP  RH WIND       PRES   REMARKS
DECATUR        CLOUDY    35  33  92 NE21      29.67R WCI  24
PEORIA         LGT SNOW  33  29  85 N15G24    29.79R FOG     WCI  23
SPRINGFIELD    LGT RAIN  36  33  89 N16       29.71R WCI  26
TAYLORVILLE    NOT AVBL
$$

ILZ033-039-045-046-055>057-062-063-252200-
EAST-CENTRAL ILLINOIS

CITY           SKY/WX    TMP DP  RH WIND       PRES   REMARKS
CHAMPAIGN      CLOUDY    35  32  88 NE21G28   29.66R WCI  24
MATTOON        CLOUDY    38  37  97 N15       29.61R FOG     WCI  29
$$

ILZ079-100>102-252200-
SOUTHWEST ILLINOIS

CITY           SKY/WX    TMP DP  RH WIND       PRES   REMARKS
BELLEVILLE     LGT RAIN  44  44 100 N13       29.62R
CAHOKIA*       LGT RAIN  45  43  93 N14       29.64R FOG
$$

ILZ064>066-069>071-074>076-080>082-084>086-088>090-092>094-252200-
SOUTH-CENTRAL ILLINOIS

CITY           SKY/WX    TMP DP  RH WIND       PRES   REMARKS
CARBONDALE     LGT RAIN  45  42  89 W6        29.60R FOG
MARION         RAIN      45  43  93 SW12      29.60R
MT. VERNON     CLOUDY    43  39  87 CALM      29.59R
$$

ILZ067-068-072-073-078-083-087-091-252200-
SOUTHEAST ILLINOIS

CITY           SKY/WX    TMP DP  RH WIND       PRES   REMARKS
LAWRENCEVILLE  LGT RAIN  41  40  96 E3        29.61R
$$

ABBREVIATIONS USED IN REMARKS
   TC - TEMPERATURE IN CELSIUS
  WCI - WIND CHILL INDEX
   HX - HEAT INDEX
  VSB - VISIBILITY
$$



USA.gov is the U.S. government's official web portal to all federal, state and local government web resources and services.